Zapata, TX

8:47 AM CST on December 04, 2016 (GMT -0600)
Zapata

Weather History for KAPY - December, 2012

Change the Weather History Date:

Friday, December 14, 2012

  Actual Average (KLRD) Record (KLRD)
Temperature  
Mean Temperature 70 °F 57 °F  
Max Temperature 76 °F 68 °F 90 °F (1908)
Min Temperature 63 °F 47 °F 22 °F (1985)
Degree Days  
Heating Degree Days 0 9  
Month to date heating degree days 110  
Since 1 July heating degree days 225  
Cooling Degree Days 4 1  
Month to date cooling degree days 18  
Year to date cooling degree days 4273  
Growing Degree Days 20 (Base 50)    
Moisture  
Dew Point 65 °F    
Average Humidity 87    
Maximum Humidity 100    
Minimum Humidity 71    
Precipitation  
Precipitation 0.04 in 0.03 in 0.56 in (1940)
Month to date precipitation 0.36  
Year to date precipitation 19.68  
Sea Level Pressure  
Sea Level Pressure 29.97 in    
Wind  
Wind Speed 7 mph (SE)    
Max Wind Speed 17 mph    
Max Gust Speed 24 mph    
Visibility 9 miles    
Events Rain    
T = Trace of Precipitation, MM = Missing Value Source: NWS Daily Summary

Daily Weather History Graph

Daily Weather History Graph

Search for Another Location

Airport or City:

Trip Planner

Search our weather history database for the weather conditions in past years. The results will help you decide how hot, cold, wet, or windy it might be!

Date:

Astronomy

Dec. 14, 2012 Rise Set
Actual Time 7:18 AM CST 5:45 PM CST
Civil Twilight 6:52 AM CST 6:11 PM CST
Nautical Twilight 6:23 AM CST 6:40 PM CST
Astronomical Twilight 5:55 AM CST 7:08 PM CST
Moon 8:28 AM CST (12/14) 7:34 PM CST (12/14)
Length of Visible Light 11h 18m
Length of Day
10h 27m
Waxing Crescent, 3% of the Moon is Illuminated
Dec 14
Waxing Crescent
Dec 19
First Quarter
Dec 28
Full
Jan 4
Last Quarter
Jan 11
New

Hourly Weather History & Observations

Time (CST) Temp. Dew Point Humidity Pressure Visibility Wind Dir Wind Speed Gust Speed Precip Events Conditions
12:15 AM 64.6 °F 60.1 °F 85% 30.09 in 10.0 mi ESE 8.1 mph - N/A   Overcast
1:35 AM 63.7 °F 60.8 °F 90% 30.08 in 5.0 mi ESE 6.9 mph - N/A   Light Drizzle
1:55 AM 63.9 °F 60.6 °F 89% 30.07 in 10.0 mi ESE 6.9 mph - N/A   Overcast
2:15 AM 64.4 °F 60.8 °F 88% 30.07 in 10.0 mi SE 5.8 mph - N/A   Overcast
3:35 AM 65.7 °F 60.8 °F 84% 30.06 in 10.0 mi SE 8.1 mph - N/A   Overcast
3:55 AM 65.3 °F 60.8 °F 85% 30.04 in 10.0 mi SE 9.2 mph - N/A   Light Drizzle
4:15 AM 65.3 °F 61.2 °F 86% 30.05 in 10.0 mi SE 4.6 mph - N/A   Overcast
4:35 AM 65.5 °F 61.2 °F 86% 30.04 in 10.0 mi ESE 9.2 mph - N/A Rain Light Rain
5:15 AM 64.8 °F 62.4 °F 92% 30.05 in 10.0 mi South 3.5 mph - 0.01 in Rain Rain
5:35 AM 64.4 °F 63.3 °F 96% 30.07 in 5.0 mi WSW 4.6 mph - 0.01 in   Overcast
5:55 AM 63.5 °F 63.0 °F 98% 30.05 in 5.0 mi Calm Calm - 0.01 in   Drizzle
6:15 AM 63.3 °F 63.1 °F 99% 30.07 in 5.0 mi Calm Calm - N/A Rain Light Rain
6:35 AM 63.5 °F 63.5 °F 100% 30.04 in 5.0 mi ENE 4.6 mph - 0.01 in Rain Light Rain
6:55 AM 63.1 °F 63.1 °F 100% 30.06 in 5.0 mi Calm Calm - 0.01 in   Overcast
7:15 AM 63.5 °F 63.5 °F 100% 30.06 in 5.0 mi East 3.5 mph - N/A Rain Rain
7:35 AM 63.1 °F 63.1 °F 100% 30.04 in 5.0 mi East 3.5 mph - N/A   Drizzle
7:55 AM 63.5 °F 63.5 °F 100% 30.08 in 5.0 mi Calm Calm - N/A   Drizzle
8:15 AM 63.5 °F 63.5 °F 100% 30.07 in 5.0 mi Calm Calm - 0.01 in Rain Light Rain
8:35 AM 63.9 °F 63.9 °F 100% 30.07 in 5.0 mi Calm Calm - 0.02 in   Light Drizzle
8:55 AM 64.0 °F 64.0 °F 100% 30.08 in 7.0 mi Calm Calm - 0.02 in Rain Light Rain
9:15 AM 64.4 °F 64.4 °F 100% 30.08 in 7.0 mi SSE 3.5 mph - N/A   Overcast
9:35 AM 64.8 °F 64.8 °F 100% 30.09 in 7.0 mi SW 3.5 mph - N/A   Overcast
9:55 AM 64.9 °F 64.9 °F 100% 30.09 in 7.0 mi SSE 3.5 mph - N/A Rain Rain
10:15 AM 65.7 °F 65.7 °F 100% 30.07 in 7.0 mi SE 3.5 mph - N/A Rain Light Rain
10:35 AM 66.7 °F 66.4 °F 99% 30.07 in 7.0 mi SE 6.9 mph - N/A   Overcast
10:55 AM 67.8 °F 66.7 °F 96% 30.05 in 10.0 mi SE 8.1 mph - N/A   Overcast
11:15 AM 68.5 °F 66.0 °F 92% 30.04 in 10.0 mi SE 10.4 mph - N/A   Overcast
11:35 AM 69.8 °F 66.2 °F 88% 30.04 in 10.0 mi SSE 6.9 mph - N/A   Overcast
12:15 PM 70.2 °F 66.2 °F 87% 30.02 in 10.0 mi SSE 8.1 mph - N/A   Overcast
12:35 PM 71.1 °F 66.4 °F 85% 29.99 in 10.0 mi SSE 9.2 mph - N/A   Mostly Cloudy
12:55 PM 71.6 °F 66.4 °F 84% 29.98 in 10.0 mi SSE 10.4 mph 16.1 mph N/A   Scattered Clouds
1:15 PM 72.5 °F 66.4 °F 81% 29.96 in 10.0 mi SSE 11.5 mph 16.1 mph N/A   Scattered Clouds
1:35 PM 72.9 °F 66.9 °F 82% 29.93 in 10.0 mi SSE 10.4 mph 19.6 mph N/A   Clear
1:55 PM 73.9 °F 67.1 °F 79% 29.92 in 10.0 mi SSE 16.1 mph - N/A   Scattered Clouds
2:15 PM 74.7 °F 67.1 °F 77% 29.91 in 10.0 mi SSE 12.7 mph 23.0 mph N/A   Mostly Cloudy
2:35 PM 75.4 °F 66.7 °F 74% 29.90 in 10.0 mi SSE 15.0 mph 19.6 mph N/A   Mostly Cloudy
2:55 PM 76.1 °F 66.7 °F 73% 29.89 in 10.0 mi SSE 16.1 mph 23.0 mph N/A   Mostly Cloudy
3:35 PM 76.3 °F 66.6 °F 72% 29.88 in 10.0 mi SSE 12.7 mph 21.9 mph N/A   Mostly Cloudy
3:55 PM 75.6 °F 66.6 °F 74% 29.85 in 10.0 mi SSE 17.3 mph 24.2 mph N/A   Scattered Clouds
4:15 PM 75.7 °F 66.4 °F 73% 29.85 in 10.0 mi SE 11.5 mph 19.6 mph N/A   Clear
4:35 PM 76.1 °F 66.4 °F 72% 29.85 in 10.0 mi SSE 9.2 mph - N/A   Clear
4:55 PM 76.1 °F 66.2 °F 71% 29.85 in 10.0 mi SSE 12.7 mph 18.4 mph N/A   Clear
5:15 PM 75.7 °F 66.4 °F 73% 29.85 in 10.0 mi SSE 9.2 mph 19.6 mph N/A   Clear
5:35 PM 75.2 °F 66.4 °F 74% 29.85 in 10.0 mi SSE 8.1 mph - N/A   Clear
5:55 PM 74.5 °F 66.4 °F 76% 29.85 in 10.0 mi SSE 5.8 mph - N/A   Clear
6:15 PM 73.6 °F 66.4 °F 78% 29.85 in 10.0 mi SSE 4.6 mph - N/A   Clear
6:35 PM 72.1 °F 66.2 °F 82% 29.86 in 10.0 mi SE 3.5 mph - N/A   Clear
6:55 PM 72.7 °F 66.4 °F 81% 29.86 in 10.0 mi SE 6.9 mph - N/A   Clear
7:15 PM 73.8 °F 66.6 °F 78% 29.87 in 10.0 mi SE 9.2 mph 16.1 mph N/A   Clear
7:35 PM 73.6 °F 66.6 °F 79% 29.89 in 10.0 mi ESE 8.1 mph - N/A   Clear
7:55 PM 72.9 °F 66.7 °F 81% 29.87 in 10.0 mi ESE 10.4 mph - N/A   Clear
8:15 PM 72.5 °F 67.1 °F 83% 29.89 in 10.0 mi SE 8.1 mph - N/A   Clear
8:35 PM 72.5 °F 67.3 °F 84% 29.89 in 10.0 mi SE 8.1 mph 16.1 mph N/A   Clear
8:55 PM 72.5 °F 67.5 °F 84% 29.87 in 10.0 mi SE 10.4 mph - N/A   Clear
9:15 PM 72.5 °F 67.3 °F 84% 29.87 in 10.0 mi SE 10.4 mph 16.1 mph N/A   Clear
9:55 PM 72.0 °F 67.1 °F 85% 29.89 in 10.0 mi SE 8.1 mph - N/A   Clear
10:15 PM 71.8 °F 67.1 °F 85% 29.89 in 10.0 mi SE 11.5 mph 16.1 mph N/A   Clear
11:15 PM 71.2 °F 67.1 °F 87% 29.87 in 10.0 mi SE 10.4 mph 17.3 mph N/A   Clear
11:35 PM 71.2 °F 67.3 °F 87% 29.87 in 10.0 mi SE 9.2 mph - N/A   Clear